RADUGA-1M 2

Last updated on Sun May 04 2025 00:02:41 GMT+0000 (Coordinated Universal Time)

1 36358U 10002A 25123.47035947 .00000053 00000+0 00000+0 0 9996 2 36358 2.5523 84.0136 0006561 255.9998 124.1272 0.98963899 45976

Satellite not in orbit

RADUGA-1M 2